Miscellaneous Local Product
Issued by NWS Hastings, NE

Home | Current Version | Previous Version | Text Only | Print | Product List | Glossary On
Versions: 1 2 3 4 5 6 7 8 9 10 11 12 13 14 15 16 17 18 19 20 21 22 23 24 25 26 27 28 29 30 31 32 33 34 35 36 37 38 39 40 41 42 43 44 45 46 47 48 49 50
000
AXUS43 KGID 270802
MISGRI

GID CWA HOURLY WEATHER ROUNDUP
NATIONAL WEATHER SERVICE HASTINGS NE
300 AM CDT FRI MAR 27 2015

NOTE: "FAIR" INDICATES FEW OR NO CLOUDS BELOW 12,000 FEET WITH NO
SIGNIFICANT WEATHER AND/OR OBSTRUCTIONS TO VISIBILITY.

...SOUTH CENTRAL NEBRASKA...

CITY           SKY/WX    TMP DP  RH WIND       PRES   REMARKS
GRAND ISLAND   PTCLDY    24  21  88 NW8       30.24R WCI  15
HASTINGS       PTCLDY    28  24  85 NW7       30.22S WCI  21
KEARNEY        MOCLDY    30  23  74 N7        30.24R WCI  23
ORD            MOCLDY    28  23  81 N6        30.23R WCI  22
YORK           PTCLDY    28  27  93 N6        30.22S WCI  22
AURORA         PTCLDY    28  26  94 NW6       30.22R WCI  21
LEXINGTON      CLOUDY    34  27  76 NE9       30.23R WCI  26
HOLDREGE       CLOUDY    32  25  76 NE10      30.23S WCI  24
HEBRON         PTCLDY    29  27  92 NW5       30.23S WCI  24

...NEBRASKA PANHANDLE...

CITY           SKY/WX    TMP DP  RH WIND       PRES   REMARKS
CHADRON        CLOUDY    38  33  82 S5        30.14F WCI  34
ALLIANCE       CLOUDY    35  31  85 SE6       30.16F WCI  30
SCOTTSBLUFF    LGT RAIN  40  32  73 E9        30.16R WCI  34
SIDNEY         CLOUDY    37  30  75 SE6       30.16F WCI  32

...WESTERN AND NORTH CENTRAL NEBRASKA...

CITY           SKY/WX    TMP DP  RH WIND       PRES   REMARKS
VALENTINE      CLOUDY    31  25  78 CALM      30.21F
AINSWORTH      CLOUDY    32  28  86 CALM      30.22S
ONEILL         PTCLDY    26  23  87 NE6       30.24S WCI  20
BROKEN BOW     CLOUDY    33  26  75 NW3       30.22S
IMPERIAL       FLURRIES  36  28  73 E6        30.22R WCI  31
NORTH PLATTE   CLOUDY    32  26  78 E7        30.23R WCI  26
MCCOOK         CLOUDY    35  28  75 E6        30.24R WCI  30

...EASTERN NEBRASKA...

CITY           SKY/WX    TMP DP  RH WIND       PRES   REMARKS
NORFOLK        PTCLDY    27  19  72 NE7       30.24S WCI  19
SO SIOUX CITY  CLEAR     25  16  68 MISG      30.27R
TEKAMAH        CLEAR     24  19  81 NW10      30.26R WCI  14
COLUMBUS       PTCLDY    27  18  69 NE8       30.25S WCI  18
ALBION         PTCLDY    28  24  82 CALM      30.24R
OMAHA EPPLEY   PTCLDY    29  23  78 N10       30.24R WCI  20
OFFUTT AFB     PTCLDY    30  24  78 NE7       30.22S WCI  23
MILLARD        CLEAR     32  24  74 N6        30.23S WCI  26
LINCOLN        CLEAR     29  26  89 N13       30.24R WCI  19
NEBRASKA CITY  CLEAR     31  31 100 N9        30.21S WCI  23
BEATRICE       CLEAR     27  26  97 N8        30.21S WCI  18
FALLS CITY     CLEAR     31  29  92 NW6       30.20R WCI  25

...NORTHERN KANSAS...

CITY           SKY/WX    TMP DP  RH WIND       PRES   REMARKS
GOODLAND       CLOUDY    37  30  75 E7        30.19R WCI  32
HILL CITY      CLOUDY    36  30  79 NE7       30.23S WCI  30
NORTON         CLOUDY    34  27  75 N8        30.23R WCI  27
PHILLIPSBURG   CLOUDY    37  30  75 NE9       30.25S WCI  31
SMITH CENTER   CLOUDY    34  27  75 N10       30.25S WCI  26
BELOIT         MOCLDY    36  30  80 N13       30.23R WCI  27
HAYS           CLOUDY    36  27  69 NE13      30.21S WCI  27
RUSSELL        CLOUDY    35  32  88 NE13      30.20S WCI  26
CONCORDIA      CLOUDY    34  30  85 N8        30.21S WCI  27
SALINA         CLOUDY    37  32  82 NE13      30.21R WCI  29
TOPEKA         CLOUDY    36  33  89 N8        30.19S WCI  30



USA.gov is the U.S. government's official web portal to all federal, state and local government web resources and services.